Regional Weather Roundup
Issued by NWS

Home | Current Version | Previous Version | Text Only | Print | Product List | Glossary Off
Versions: 1 2 3 4 5 6 7 8 9 10 11 12 13 14 15 16 17 18 19 20 21 22 23 24 25 26 27 28

000
ASUS45 KBOU 190007
RWRCO

WEATHER ROUNDUP FOR COLORADO
NATIONAL WEATHER SERVICE DENVER/BOULDER CO
500 PM MST SAT FEB 18 2017

NOTE: "FAIR" INDICATES FEW OR NO CLOUDS BELOW 12000 FEET WITH NO
SIGNIFICANT WEATHER AND/OR OBSTRUCTIONS TO VISIBILITY.

COZ001>005-013-030-031-190100-
...NORTHWEST COLORADO...

CITY           SKY/WX    TMP DP  RH WIND       PRES   REMARKS
CRAIG          CLOUDY    44  32  62 CALM      29.76R
HAYDEN         FAIR      39  28  65 N7        29.77R
MEEKER         CLOUDY    44  33  65 N5        29.75R
MOUNT WERNER   NOT AVBL
STEAMBOAT SPGS MOCLDY    39  30  70 S8        29.78R
WALDEN           N/A     36  27  69 N3        29.77R
$$

COZ006>008-011-190100-
...WEST CENTRAL VALLEYS...

CITY           SKY/WX    TMP DP  RH WIND       PRES   REMARKS
GRAND JUNCTION FAIR      48  39  71 W10       29.72S
MONTROSE       FAIR      51  34  52 N7        29.73R
EAGLE          CLEAR     54  28  37 CALM      29.71R
RIFLE          CLOUDY    50  34  54 W13       29.71R
DELTA          FAIR      56  32  39 W5        29.70F
NUCLA          NOT AVBL
$$

COZ017>023-064>068-190100-
...SOUTHWEST COLORADO...

CITY           SKY/WX    TMP DP  RH WIND       PRES   REMARKS
DURANGO        FAIR      50  29  44 S7        29.75S
CORTEZ         FAIR      53  31  42 SE8       29.70S
PAGOSA SPRINGS FAIR      47  26  43 W13       29.78R
TELLURIDE      FAIR      43  22  44 S8        29.80S
WOLF CREEK PAS CLOUDY    30  23  74 S14G20    29.94S WCI  20
$$

COZ009-010-012-014-032>034-037-058>063-190100-
...CENTRAL COLORADO...

CITY           SKY/WX    TMP DP  RH WIND       PRES   REMARKS
ASPEN          MOCLDY    45  29  53 N7        29.71S
BUENA VISTA    FAIR      49  23  36 S10G17    29.76S
COPPER MTN     FAIR      36  19  51 MISG      29.88S
BERTHOUD PASS  FAIR      28  19  69 S12G25    29.90R WCI  18
COTTONWOOD PAS FAIR      43  23  45 SE14      29.82F
GUNNISON       FAIR      35  27  72 E5        29.77R WCI  31
KREMMLING      MOCLDY    54  32  43 CALM      29.73R
LEADVILLE      FAIR      37  21  52 S12       29.79R
SALIDA         FAIR      53  24  32 SW17G24   29.82S
SUNLIGHT       NOT AVBL
WILKERSON PASS FAIR      34  21  60 SW6       29.91S WCI  29
$$

COZ069>075-190100-
...SAN LUIS VALLEY/SANGRE DE CRISTO MOUNTAINS...

CITY           SKY/WX    TMP DP  RH WIND       PRES   REMARKS
ALAMOSA        FAIR      48  32  53 E5        29.76S
LA VETA PASS   FAIR      39  25  56 MISG      29.88R
SAGUACHE       FAIR      48  30  49 S6        29.78S
$$

COZ035-036-038>040-190100-
...NORTHERN COLORADO FRONT RANGE...

CITY           SKY/WX    TMP DP  RH WIND       PRES   REMARKS
DENVER INTL AP MOCLDY    60  22  23 S20G28    29.64R
DMNS CITY PARK   N/A     60  21  21 W6G12     29.64R
AURORA         MOCLDY    59  24  25 S18G29    29.65R
FRONT RANGE AP MOCLDY    61  21  21 S20G26    29.66
ERIE MUNI ARPT FAIR      61  19  20 N7        29.63R
BOULDER MUN AP FAIR      59  23  25 NW7       29.65R
CENTENNIAL     MOCLDY    58  23  26 S18G26    29.65R
BROOMFIELD     MOCLDY    61  21  21 NW12      29.65S
FORT COLLINS   FAIR      58  22  24 NE5       29.64S
LONGMONT       FAIR      61  22  22 NW7       29.65R
$$

COZ041-046-047-076>085-087-088-190100-
...PIKES PEAK/PALMER DIVIDE AND SOUTHERN FOOTHILLS...

CITY           SKY/WX    TMP DP  RH WIND       PRES   REMARKS
COLO. SPRINGS  MOCLDY    54  20  26 S10       29.74R
A. F. ACADEMY  FAIR      53  22  29 S14       29.72R
SCHRIEVER AFB  FAIR      53  20  27 S8        29.74R
ELLICOTT       FAIR     N/A N/A N/A SE8       29.73R
FALCON         FAIR      51  18  27 S15       29.77R
FORT CARSON    FAIR      56  22  26 SE8       29.72R
LIMON          FAIR      55  18  23 S15G25    29.71R
MONUMENT HILL  FAIR      50  23  34 S15       29.75R
TRINIDAD       FAIR      61  19  19 S17       29.71R
$$

COZ042>045-048>051-090-091-190100-
...NORTHEAST COLORADO...

CITY           SKY/WX    TMP DP  RH WIND       PRES   REMARKS
GREELEY ARPT   FAIR      58  25  28 E7        29.62F
AKRON          FAIR      58  20  22 SE16      29.67F
BURLINGTON     FAIR      58  24  27 SE13      29.72F
WRAY           NOT AVBL
STERLING       FAIR      61  25  25 SE12      29.63F
HOLYOKE        FAIR      61  28  29 SE10      29.70S
FORT MORGAN    FAIR      60  20  21 SE12G17   29.64S
$$

COZ086-089-092>099-190100-
...SOUTHEAST COLORADO...

CITY           SKY/WX    TMP DP  RH WIND       PRES   REMARKS
PUEBLO         FAIR      61  24  24 E7        29.66R
LA JUNTA       FAIR      66  20  17 SE21      29.66R
LAMAR          FAIR      64  20  18 SE12      29.66F
SPRINGFIELD      N/A     60  24  25 S16       29.71F
$$




USA.gov is the U.S. government's official web portal to all federal, state and local government web resources and services.